Flag for USA

Past Weather in 33°34'49"N, 117°15'10"W, USA — Yesterday and Last 2 Weeks

Now
65 °F

Passing clouds.


Feels Like: 65 °F
Forecast: 75 / 52 °F
Wind: 3 mph from West

Location: Oceanside - Camp Pendleton
Current Time: Oct 22, 2020 at 8:02:37 pm
Latest Report: Oct 22, 2020 at 6:55 pm
Visibility: 10 mi
Pressure29.88 "Hg
Humidity: 66%
Dew Point: 53 °F
Location of 33°34'49"N, 117°15'10"WLocation

Past Weather in 33°34'49"N, 117°15'10"W — Graph

°F

33°34'49"N, 117°15'10"W Temperature Yesterday

Maximum temperature yesterday: 77 °F (at 12:55 pm)
Minimum temperature yesterday: 66 °F (at 5:55 am)
Average temperature yesterday: 69 °F

High & Low Weather Summary for the Past Weeks

 TemperatureHumidityPressure
High99 °F (Oct 13, 12:55 pm)83% (Oct 17, 11:36 pm)30.02 "Hg (Oct 17, 11:36 pm)
Low51 °F (Oct 17, 5:55 am)12% (Oct 13, 12:55 pm)29.79 "Hg (Oct 21, 2:55 pm)
Average69 °F60%29.92 "Hg
* Reported Oct 7 5:55 pm — Oct 22 5:55 pm, 33°34'49"N, 117°15'10"W. Weather by CustomWeather, © 2020

Note: Actual official high and low records may vary slightly from our data, if they occured in-between our weather recording intervals... More about our weather records

33°34'49"N, 117°15'10"W Weather History for the Previous 24 Hours

Scroll right to see more
 ConditionsComfort  
Time TempWeatherWind HumidityBarometerVisibility
5:55 pm
Thu, Oct 22
69 °FSunny.6 mph57%29.88 "Hg10 mi
4:55 pm72 °FPassing clouds.7 mph53%29.88 "Hg10 mi
3:55 pm73 °FPassing clouds.8 mph50%29.87 "Hg10 mi
2:55 pm74 °FScattered clouds.8 mph48%29.86 "Hg10 mi
1:55 pm74 °FSunny.7 mph46%29.86 "Hg10 mi
12:55 pm75 °FPassing clouds.5 mph45%29.88 "Hg10 mi
11:55 am72 °FScattered clouds.5 mph49%29.90 "Hg10 mi
10:55 am72 °FOvercast.6 mph49%29.90 "Hg10 mi
10:41 am71 °FOvercast.3 mph51%29.90 "Hg10 mi
9:55 am70 °FOvercast.3 mph55%29.89 "Hg10 mi
9:16 am70 °FOvercast.No wind57%29.89 "Hg10 mi
8:55 am69 °FOvercast.3 mph61%29.88 "Hg7 mi
7:55 am67 °FOvercast.No wind68%29.86 "Hg9 mi
6:55 am67 °FOvercast.No wind68%29.85 "Hg10 mi
5:55 am68 °FOvercast.No wind65%29.84 "Hg10 mi
4:55 am68 °FOvercast.No wind65%29.83 "Hg10 mi
3:55 am68 °FOvercast.3 mph65%29.83 "Hg10 mi
2:55 am69 °FOvercast.No wind61%29.84 "Hg10 mi
1:55 am68 °FOvercast.No wind65%29.85 "Hg10 mi
12:55 am69 °FOvercast.3 mph63%29.84 "Hg10 mi
11:55 pm
Wed, Oct 21
69 °FOvercast.6 mph63%29.85 "Hg10 mi
10:55 pm70 °FOvercast.5 mph64%29.85 "Hg10 mi
9:55 pm69 °FOvercast.No wind63%29.85 "Hg10 mi
8:55 pm67 °FOvercast.No wind68%29.83 "Hg10 mi
Weather by CustomWeather, © 2020

See weather overview